Weather History for Nome, AK

Change the Weather History Date:

Wednesday, August 7, 2013

  Actual Average Record
Temperature  
Mean Temperature 64 °F 51 °F  
Max Temperature 72 °F 57 °F 79 °F (1967)
Min Temperature 56 °F 45 °F 30 °F (1935)
Degree Days  
Heating Degree Days 1 14  
Month to date heating degree days 51 98  
Since 1 June heating degree days 934 1014  
Since 1 July heating degree days 458 498  
Cooling Degree Days 0    
Month to date cooling degree days 0  
Year to date cooling degree days 7  
Since 1 June cooling degree days 7  
Growing Degree Days 14 (Base 50)    
Moisture  
Dew Point 51 °F    
Average Humidity 0    
Maximum Humidity 0    
Minimum Humidity 0    
Precipitation  
Precipitation T in 0.11 in 1.61 in (1922)
Month to date precipitation 1.45 0.74  
Year to date precipitation 10.35 7.97  
Snow  
Snow 0.00 in 0.00 in 0.00 in (2014)
Month to date snowfall 0.0 0.0  
Since 1 June snowfall 0.1 0.3  
Since 1 July snowfall 0.0 0.0  
Snow Depth 0.00 in    
Sea Level Pressure  
Sea Level Pressure 29.63 in    
Wind  
Wind Speed 12 mph (ENE)    
Max Wind Speed 22 mph    
Max Gust Speed 26 mph    
Visibility 10 miles    
Events Rain    
T = Trace of Precipitation, MM = Missing Value Source: NWS Daily Summary

Daily Weather History Graph

Daily Weather History Graph

Search for Another Location

Airport:

Trip Planner

Search our weather history database for the weather conditions in past years. The results will help you decide how hot, cold, wet, or windy it might be!

Date:

Astronomy

Aug. 07, 2013 Rise Set
Actual Time 6:26 AM AKDT 11:46 PM AKDT
Civil Twilight 5:07 AM AKDT 1:02 AM AKDT
Nautical Twilight Sun does not rise Sun does not rise
Astronomical Twilight Sun does not rise Sun does not rise
Moon 8:19 AM AKDT (8/7) 10:55 PM AKDT (8/7)
Length of Visible Light 19h 55m
Length of Day
17h 20m
New Moon, 1% of the Moon is Illuminated
Aug 7
New Moon
Aug 14
First Quarter
Aug 20
Full
Aug 28
Last Quarter
Sep 5
New

Hourly Weather History & Observations

Time (AKDT) Temp. Dew Point Humidity Pressure Visibility Wind Dir Wind Speed Gust Speed Precip Events Conditions
12:53 AM 55.9 °F 51.1 °F 84% 29.72 in 10.0 mi NE 9.2 mph - 0.00 in   Overcast
1:53 AM 55.9 °F 51.1 °F 84% 29.70 in 10.0 mi NE 9.2 mph - 0.00 in   Overcast
2:53 AM 57.0 °F 51.1 °F 81% 29.70 in 10.0 mi NE 10.4 mph - N/A   Overcast
3:53 AM 57.0 °F 51.1 °F 81% 29.68 in 10.0 mi NE 13.8 mph - N/A   Overcast
4:53 AM 57.0 °F 51.1 °F 81% 29.67 in 10.0 mi NE 13.8 mph - 0.00 in Rain Light Rain
5:53 AM 60.1 °F 50.0 °F 69% 29.66 in 10.0 mi ENE 15.0 mph - 0.00 in   Overcast
6:53 AM 59.0 °F 50.0 °F 72% 29.66 in 10.0 mi NE 12.7 mph - 0.00 in Rain Light Rain
7:53 AM 59.0 °F 50.0 °F 72% 29.65 in 10.0 mi NE 11.5 mph - 0.00 in   Overcast
8:53 AM 61.0 °F 48.9 °F 64% 29.65 in 10.0 mi ENE 10.4 mph - N/A   Overcast
9:53 AM 62.1 °F 51.1 °F 67% 29.67 in 10.0 mi ENE 12.7 mph - 0.00 in   Overcast
10:53 AM 63.0 °F 51.1 °F 65% 29.65 in 10.0 mi ENE 12.7 mph 20.7 mph N/A   Mostly Cloudy
11:53 AM 63.0 °F 52.0 °F 67% 29.64 in 10.0 mi ENE 11.5 mph - 0.00 in Rain Light Rain
12:53 PM 64.9 °F 52.0 °F 63% 29.65 in 10.0 mi ENE 15.0 mph - 0.00 in   Overcast
1:53 PM 66.0 °F 51.1 °F 59% 29.64 in 10.0 mi East 12.7 mph - 0.00 in   Mostly Cloudy
2:53 PM 68.0 °F 50.0 °F 52% 29.61 in 10.0 mi East 11.5 mph - N/A   Mostly Cloudy
3:53 PM 70.0 °F 50.0 °F 49% 29.61 in 10.0 mi East 11.5 mph - 0.00 in   Overcast
4:53 PM 70.0 °F 48.9 °F 47% 29.59 in 10.0 mi ENE 16.1 mph - N/A   Mostly Cloudy
5:53 PM 70.0 °F 52.0 °F 53% 29.58 in 10.0 mi ENE 16.1 mph - N/A   Mostly Cloudy
6:53 PM 69.1 °F 48.9 °F 49% 29.59 in 10.0 mi East 17.3 mph 26.5 mph N/A   Scattered Clouds
7:53 PM 68.0 °F 52.0 °F 56% 29.58 in 10.0 mi East 15.0 mph 24.2 mph N/A   Mostly Cloudy
8:53 PM 66.9 °F 52.0 °F 59% 29.58 in 10.0 mi East 12.7 mph - 0.00 in   Mostly Cloudy
9:53 PM 64.9 °F 53.1 °F 65% 29.57 in 10.0 mi ENE 8.1 mph - N/A   Mostly Cloudy
10:53 PM 63.0 °F 52.0 °F 67% 29.55 in 10.0 mi ENE 8.1 mph - N/A   Mostly Cloudy
11:53 PM 59.0 °F 50.0 °F 72% 29.57 in 10.0 mi NE 8.1 mph - N/A   Mostly Cloudy